一网星座-0588星 (ONEWEB-0588)

导读 | 豆包AI

ONEWEB-0588是英国OneWeb公司低轨卫星星座中的一员,于北京时间2023年1月10日由SpaceX猎鹰9号火箭发射升空,是这次发射任务中40颗OneWeb卫星之一。卫星单颗重约148公斤,依靠太阳能电池板供电,采用电动推力系统,运行在约1200公里高度的近地轨道,主要为全球提供宽带互联网接入服务,助力偏远地区网络覆盖,是OneWeb全球低轨通信星座组网的重要组成部分。

基本信息
目录编号:
55153
目录名称:
ONEWEB-0588
国际标识:
2023-004P
轨道中心:
EARTH
卫星名称:
一网星座-0588星
卫星全名:
一网星座-0588星 (ONEWEB-0588)
卫星状态:
在轨 (已飞行1208 天)
发射日期:
2023-01-10 UTC
国别 :
英国 (GB)
星等 :
--
轨道信息
数据来源 国际轨道数据
星历时间: 2026-05-02T11:02:57+0800
6小时前
查看轨道信息
半长轴: 7568.041km
偏心率: 0.000137
轨道倾角: 87.919°
近地点辐角 98.404°
升交点赤经 344.637°
平近点角 261.725°
近地点: 1188.867km
远地点: 1190.941km
周期: 109.203分钟
每日圈数: 13.186441
详细信息
平衡模式:
三轴稳定
覆盖范围:
全球
运营商:
一网卫星公司
运营商所在国:
英国
制造商(研发单位):
一网卫星公司
制造商所在国:
英国
使用方式:
暂无
卫星简介
OneWeb卫星网络由648颗重约125公斤的微型卫星组成,运行在1200公里的轨道上。 每颗卫星都能够提供至少每秒8千兆位的吞吐量,以使用其高吞吐量的Ku频段有效载荷为家庭和移动平台提供互联网接入。该卫星仍在工作。
2D轨道图
3D轨道图
轨道高度分析图
轨道倾角分析图
轨道综合分析图
查看轨道综合分析图